www.pogodaiklimat.ru

Погода и климат >> Архив погоды >> Австралия >> Tibooburra Airport


ПОГОДА в Tibooburra Airport

  • Прогноз погоды в Tibooburra Airport
  • Монитор погоды в Tibooburra Airport
  • Климат города

АРХИВ ПОГОДЫ в Tibooburra Airport

Время (UTC), дата Ветер
(напр.,м/с)
 
Видим.   Явления Облачность Т
(С)
Тd
(С)
f
(%)
Тe
(С)
Тes
(С)
Комфортность P
(гПа)
Po
(гПа)
Тmin
(С)
Tmax
(С)
R
(мм)
R24
(мм)
S
(см)
22 9.08 С 6 н/о н/о +11.2 -6.2 29 +9 +9 1015.9 994.9
23 9.08 С 6 н/о н/о +13.8 -5.9 25 +12 +12 1016.0 995.0
00 10.08 С 7 н/о н/о +19.7 -6.0 17 +19 +19 1015.9 994.9
01 10.08 С 10 н/о н/о +23.6 -7.4 12 +21 +21 комфорт 1015.6 994.6
02 10.08 С 10 н/о н/о +25.4 -8.4 10 +23 +23 комфорт 1015.0 994.0 +8.6
03 10.08 СЗ 10 н/о н/о +26.4 -9.0 9 +23 +23 комфорт 1013.8 992.8
04 10.08 СЗ 10 н/о н/о +27.5 -9.7 8 +24 +24 комфорт 1013.0 992.0
05 10.08 СЗ 9 н/о н/о +28.3 -9.1 8 +25 +25 комфорт 1012.7 991.7
06 10.08 СЗ 8 н/о н/о +28.4 -9.0 8 +25 +25 комфорт 1012.8 991.8
07 10.08 СЗ 9 н/о н/о +27.8 -9.4 8 +24 +24 комфорт 1013.1 992.1
08 10.08 СЗ 5 н/о н/о +25.7 -9.5 9 +23 +23 комфорт 1013.4 992.4
09 10.08 СЗ 4 н/о н/о +22.9 -6.9 13 +21 +21 комфорт 1013.8 992.8
10 10.08 С 5 н/о н/о +21.4 -6.3 15 +20 +20 1014.2 993.2
11 10.08 С 5 н/о н/о +20.3 -6.3 16 +20 +20 1014.7 993.7
12 10.08 С 6 н/о н/о +20.0 -5.8 17 +19 +19 1014.8 993.8
13 10.08 З 6 н/о н/о +18.6 -5.4 19 +18 +18 1015.5 994.5
14 10.08 З 5 н/о н/о +16.9 -4.9 22 +16 +16 1015.9 994.9 +28.7
15 10.08 З 6 н/о н/о +16.3 -3.7 25 +15 +15 1016.2 995.2
16 10.08 ЮЗ 7 н/о н/о +16.2 -1.4 30 +15 +15 1016.6 995.5
17 10.08 ЮЗ 6 н/о н/о +14.9 -1.2 33 +13 +13 1016.8 995.7
18 10.08 ЮЗ 6 н/о н/о +14.5 -1.2 34 +13 +13 1016.8 995.7
19 10.08 ЮЗ 6 н/о н/о +14.1 -2.8 31 +12 +12 1017.4 996.3
20 10.08 Ю 6 н/о н/о +13.6 -3.2 31 +12 +12 1018.6 997.5
21 10.08 Ю 5 н/о н/о +13.6 -3.2 31 +12 +12 1019.4 998.3
22 10.08 Ю 6 н/о н/о +13.8 -3.5 30 +12 +12 1020.2 999.1
23 10.08 Ю 6 н/о н/о +15.1 -2.8 29 +14 +14 1021.4 1000.2
00 11.08 Ю 6 н/о н/о +16.5 -2.0 28 +16 +16 1022.2 1001.0
01 11.08 Ю 6 н/о н/о +16.6 -1.0 30 +16 +16 1022.7 1001.5
02 11.08 Ю 6 н/о н/о +17.7 -0.1 30 +17 +17 1022.6 1001.4 +13.5
03 11.08 Ю 6 н/о н/о +17.8 0.0 30 +17 +17 1021.5 1000.3
04 11.08 Ю 6 н/о н/о +18.1 +0.3 30 +18 +18 1020.7 999.6
05 11.08 Ю 4 н/о н/о +18.9 +0.5 29 +19 +19 1020.0 998.9
06 11.08 Ю 3 н/о н/о +19.1 +0.2 28 +19 +19 1019.9 998.8
07 11.08 Ю 4 н/о н/о +18.7 -0.7 27 +19 +19 1020.2 999.1
08 11.08 Ю 2 н/о н/о +16.9 -0.3 31 +17 +17 1020.7 999.6
09 11.08 ЮЗ 3 н/о н/о +15.4 0.0 35 +15 +15 1021.6 1000.4
10 11.08 ЮЗ 2 н/о н/о +13.5 -0.9 37 +13 +13 1022.2 1001.0
11 11.08 Ю 4 н/о н/о +13.8 -0.6 37 +13 +13 1022.5 1001.3
12 11.08 Ю 3 н/о н/о +12.4 -0.8 40 +12 +12 1022.9 1001.7
13 11.08 Ю 3 н/о н/о +11.2 -0.9 43 +10 +10 1023.0 1001.8
14 11.08 ЮЗ 2 н/о н/о +10.4 -1.0 45 +9 +9 1023.0 1001.8 +20.2
15 11.08 ЮЗ 2 н/о н/о +9.7 -1.9 44 +9 +9 1022.2 1001.0
16 11.08 Ю 1 н/о н/о +9.8 -2.5 42 +11 +11 1021.5 1000.3
17 11.08 ЮЗ 2 н/о н/о +8.3 -2.6 46 +7 +7 1021.5 1000.3
18 11.08 ЮЗ 3 н/о н/о +6.9 -2.5 51 +5 +5 1021.9 1000.7
19 11.08 З 3 н/о н/о +6.2 -3.7 49 +4 +4 1022.9 1001.7
20 11.08 ЮЗ 2 н/о н/о +6.1 -3.8 49 +4 +4 1022.9 1001.7
21 11.08 ЮЗ 2 н/о н/о +6.1 -4.3 47 +5 +5 1023.7 1002.5
22 11.08 ЮЗ 1 н/о н/о +8.0 -3.8 43 +9 +9 1024.0 1002.8
23 11.08 В 4 н/о н/о +12.8 -0.8 39 +12 +12 1024.4 1003.2
00 12.08 В 5 н/о н/о +15.6 -0.2 34 +15 +15 1024.6 1003.4
01 12.08 В 6 н/о н/о +17.2 -4.1 23 +17 +17 1024.7 1003.5
02 12.08 В 5 н/о н/о +18.3 -3.8 22 +18 +18 1024.2 1003.0 +5.3
03 12.08 В 4 н/о н/о +19.1 -5.0 19 +19 +19 1023.4 1002.2
04 12.08 В 3 н/о н/о +19.3 -5.6 18 +19 +19 1022.4 1001.2
05 12.08 В 4 н/о н/о +20.2 -6.4 16 +20 +20 1021.5 1000.3
06 12.08 В 4 н/о н/о +20.7 -7.7 14 +20 +20 1021.1 1000.0
07 12.08 В 3 н/о н/о +20.2 -8.1 14 +20 +20 1020.9 999.8
08 12.08 В 3 н/о н/о +18.6 -7.7 16 +19 +19 1021.3 1000.1
09 12.08 СВ 3 н/о н/о +15.6 -7.2 20 +16 +16 1021.7 1000.5
10 12.08 В 3 н/о н/о +14.7 -7.4 21 +14 +14 1022.2 1001.0
11 12.08 В 3 н/о н/о +13.4 -6.2 25 +13 +13 1022.4 1001.2
12 12.08 В 3 н/о н/о +12.8 -6.7 25 +12 +12 1022.5 1001.3
13 12.08 В 2 н/о н/о +11.5 -7.3 26 +11 +11 1022.5 1001.3
14 12.08 В 2 н/о н/о +12.5 -6.5 26 +13 +13 1022.3 1001.1 +21.3
15 12.08 ЮВ 2 н/о н/о +11.3 -7.0 27 +11 +11 1022.3 1001.1
16 12.08 ЮВ 3 н/о н/о +9.4 -6.4 32 +8 +8 1021.8 1000.6
17 12.08 В 3 н/о н/о +10.2 -7.0 29 +9 +9 1021.3 1000.1
18 12.08 В 3 н/о н/о +9.6 -7.5 29 +8 +8 1020.7 999.6
19 12.08 ЮЗ 3 н/о н/о +6.8 -6.8 37 +5 +5 1021.6 1000.4
20 12.08 Ю 2 н/о н/о +7.7 -7.1 34 +6 +6 1022.3 1001.1
21 12.08 штиль 0 н/о н/о +8.7 -6.6 33 +9 +9 1022.8 1001.6
22 12.08 В 1 н/о н/о +11.2 -6.2 29 +12 +12 1023.4 1002.2
23 12.08 В 1 н/о н/о +14.5 -5.3 25 +15 +15 1023.7 1002.5
00 13.08 С 5 н/о н/о +17.9 -3.5 23 +18 +18 1023.4 1002.2
01 13.08 С 4 н/о н/о +19.5 -2.8 22 +20 +20 1023.2 1002.0
02 13.08 С 4 н/о н/о +22.2 -2.5 19 +21 +21 комфорт 1022.3 1001.1 +6.5
03 13.08 СЗ 2 н/о н/о +23.8 -2.7 17 +22 +22 комфорт 1021.3 1000.1
04 13.08 ЮЗ 3 н/о н/о +24.9 -2.6 16 +23 +23 комфорт 1020.7 999.6
05 13.08 ЮЗ 4 н/о н/о +26.1 -2.5 15 +24 +24 комфорт 1020.2 999.1
06 13.08 ЮЗ 3 н/о н/о +25.3 -3.2 15 +23 +23 комфорт 1019.5 998.4
07 13.08 З 2 н/о н/о +25.5 -3.0 15 +23 +23 комфорт 1019.2 998.1
08 13.08 З 1 н/о н/о +23.8 -1.9 18 +22 +22 комфорт 1019.8 998.7
09 13.08 штиль 0 н/о н/о +22.0 -1.3 21 +21 +21 комфорт 1020.3 999.2
10 13.08 штиль 0 н/о н/о +21.1 -1.4 22 +21 +21 комфорт 1020.5 999.4
11 13.08 СВ 3 н/о н/о +19.7 -1.4 24 +20 +20 1020.9 999.8
12 13.08 СВ 4 н/о н/о +18.9 -1.5 25 +19 +19 1020.8 999.7
13 13.08 С 4 н/о н/о +17.5 -1.7 27 +17 +17 1020.8 999.7
14 13.08 С 4 н/о н/о +16.9 -1.7 28 +17 +17 1020.5 999.4 +26.4
15 13.08 С 5 н/о н/о +17.1 -1.5 28 +17 +17 1019.7 998.6
16 13.08 С 6 н/о н/о +16.9 -1.7 28 +16 +16 1018.8 997.7
17 13.08 С 6 н/о н/о +17.6 -1.6 27 +17 +17 1018.9 997.8
18 13.08 С 6 н/о н/о +17.7 -2.0 26 +17 +17 1018.7 997.6
19 13.08 С 4 н/о н/о +17.2 -1.4 28 +17 +17 1018.7 997.6
20 13.08 СВ 2 н/о н/о +13.2 -1.9 35 +13 +13 1019.1 998.0
21 13.08 штиль 0 н/о н/о +13.5 -1.3 36 +13 +13 1019.9 998.8
22 13.08 СВ 3 н/о н/о +14.7 -1.4 33 +14 +14 1019.9 998.8
23 13.08 С 4 н/о н/о +18.4 -1.4 26 +18 +18 1019.7 998.6
00 14.08 С 5 н/о н/о +22.3 -1.7 20 +21 +21 комфорт 1020.1 999.0
01 14.08 СЗ 6 н/о н/о +25.9 -2.7 15 +24 +24 комфорт 1019.7 998.6
02 14.08 СЗ 7 н/о н/о +28.9 -3.3 12 +26 +26 жарко 1018.7 997.6 +12.3
03 14.08 СЗ 7 н/о н/о +29.4 -5.4 10 +26 +26 жарко 1017.5 996.4
04 14.08 СЗ 6 н/о н/о +30.2 -4.8 10 +27 +27 жарко 1016.3 995.3
05 14.08 З 7 н/о н/о +30.6 -5.8 9 +27 +27 жарко 1015.5 994.5
06 14.08 З 7 н/о н/о +30.8 -5.7 9 +27 +27 жарко 1015.2 994.2
07 14.08 СЗ 6 н/о н/о +30.0 -4.9 10 +26 +26 жарко 1015.1 994.1
08 14.08 З 4 н/о н/о +28.5 -4.8 11 +25 +25 комфорт 1015.5 994.5
09 14.08 СЗ 4 н/о н/о +26.3 -3.3 14 +24 +24 комфорт 1015.8 994.8
10 14.08 СЗ 4 н/о н/о +25.9 -3.6 14 +24 +24 комфорт 1015.9 994.9
11 14.08 СЗ 5 н/о н/о +25.7 -3.8 14 +23 +23 комфорт 1015.9 994.9
12 14.08 С 5 н/о н/о +23.6 -2.8 17 +22 +22 комфорт 1016.0 995.0
13 14.08 СЗ 6 н/о н/о +23.7 -2.8 17 +22 +22 комфорт 1015.7 994.7
14 14.08 С 4 н/о н/о +20.3 -2.7 21 +20 +20 1015.1 994.1 +31.4
15 14.08 С 6 н/о н/о +21.0 -2.1 21 +21 +21 комфорт 1014.6 993.6
16 14.08 СЗ 7 н/о н/о +21.6 -3.0 19 +21 +21 комфорт 1014.0 993.0
17 14.08 СЗ 7 н/о н/о +21.4 -3.1 19 +21 +21 комфорт 1013.4 992.4
18 14.08 СЗ 7 н/о н/о +20.9 -2.9 20 +20 +20 1013.1 992.1
19 14.08 С 6 н/о н/о +20.0 -3.0 21 +20 +20 1012.9 991.9
20 14.08 С 7 н/о н/о +19.9 -3.0 21 +19 +19 1013.2 992.2
21 14.08 С 8 н/о н/о +18.9 -3.3 22 +18 +18 1013.4 992.4
22 14.08 С 8 н/о н/о +19.8 -3.1 21 +19 +19 1013.4 992.4
23 14.08 С 8 н/о н/о +23.5 -3.7 16 +22 +22 комфорт 1013.4 992.4
00 15.08 С 10 н/о н/о +27.0 -5.9 11 +24 +24 комфорт 1013.1 992.1
01 15.08 С 10 н/о н/о +29.0 -7.0 9 +25 +25 комфорт 1012.3 991.3
02 15.08 СЗ 10 н/о н/о +31.2 -6.9 8 +27 +27 жарко 1011.1 990.2 +18.7
03 15.08 СЗ 10 н/о н/о +31.9 -6.4 8 +28 +28 жарко 1009.8 988.9
04 15.08 СЗ 11 н/о н/о +32.0 -6.3 8 +28 +28 жарко 1008.7 987.8
05 15.08 СЗ 11 н/о н/о +32.4 -7.8 7 +28 +28 жарко 1007.6 986.7
06 15.08 СЗ 10 н/о н/о +32.4 -7.8 7 +28 +28 жарко 1007.1 986.2
07 15.08 СЗ 11 н/о н/о +31.5 -6.7 8 +27 +27 жарко 1007.0 986.1
08 15.08 СЗ 8 н/о н/о +30.0 -7.8 8 +26 +26 жарко 1007.0 986.1
09 15.08 СЗ 6 н/о н/о +28.2 -7.6 9 +25 +25 комфорт 1007.2 986.3
10 15.08 С 5 н/о н/о +25.4 -7.2 11 +23 +23 комфорт 1007.6 986.7
11 15.08 С 6 н/о н/о +24.2 -7.0 12 +22 +22 комфорт 1007.8 986.9
12 15.08 С 7 н/о н/о +24.3 -6.9 12 +22 +22 комфорт 1007.4 986.5
13 15.08 С 7 н/о н/о +23.6 -6.4 13 +22 +22 комфорт 1007.0 986.1
14 15.08 С 7 н/о н/о +23.5 -5.5 14 +22 +22 комфорт 1006.5 985.7 +33.4
15 15.08 СЗ 8 н/о н/о +24.0 +1.0 22 +22 +22 комфорт 1006.4 985.6
16 15.08 З 9 н/о н/о +22.1 -4.9 16 +21 +21 комфорт 1007.4 986.5
17 15.08 ЮЗ 9 н/о н/о +20.5 +2.3 30 +20 +20 1007.9 987.0
18 15.08 ЮЗ 9 н/о н/о +17.6 +8.7 56 +16 +16 1009.0 988.1
19 15.08 Ю 8 н/о н/о +16.4 +8.9 61 +15 +15 1009.6 988.7
20 15.08 ЮЗ 4 н/о н/о +15.4 +9.3 67 +14 +14 1010.5 989.6
21 15.08 ЮЗ 3 н/о н/о +14.6 +8.8 68 +14 +14 1011.5 990.6
22 15.08 ЮЗ 5 н/о н/о +15.9 +9.3 65 +15 +15 1012.5 991.5
23 15.08 ЮЗ 8 н/о н/о +17.5 +2.3 36 +16 +16 1013.3 992.3
00 16.08 ЮЗ 8 н/о н/о +18.4 +1.4 32 +18 +18 1013.5 992.5
01 16.08 ЮЗ 7 н/о н/о +19.4 +0.4 28 +19 +19 1013.5 992.5
02 16.08 ЮЗ 7 н/о н/о +20.0 -1.2 24 +20 +20 1012.9 991.9 +14.5
03 16.08 ЮЗ 5 н/о н/о +20.7 0.0 25 +21 +21 комфорт 1011.9 990.9
04 16.08 ЮЗ 5 н/о н/о +22.0 -0.1 23 +21 +21 комфорт 1011.3 990.4
05 16.08 З 4 н/о н/о +21.9 -0.8 22 +21 +21 комфорт 1010.9 990.0
06 16.08 СЗ 7 н/о н/о +22.3 +0.2 23 +22 +22 комфорт 1010.7 989.8
07 16.08 З 6 н/о н/о +22.2 +0.7 24 +22 +22 комфорт 1010.7 989.8
08 16.08 СЗ 6 н/о н/о +21.2 +2.0 28 +21 +21 комфорт 1011.0 990.1
09 16.08 З 5 н/о н/о +19.2 -4.3 20 +19 +19 1011.9 990.9
10 16.08 З 5 н/о н/о +17.7 -3.7 23 +17 +17 1012.8 991.8
11 16.08 З 4 н/о н/о +15.7 -2.7 28 +15 +15 1013.5 992.5
12 16.08 З 4 н/о н/о +15.1 -1.0 33 +14 +14 1013.8 992.8
13 16.08 З 5 н/о н/о +14.4 -0.8 35 +13 +13 1014.0 993.0
14 16.08 З 5 н/о н/о +14.0 -1.2 35 +13 +13 1014.1 993.1 +24.5
15 16.08 З 5 н/о н/о +13.0 -1.3 37 +11 +11 1014.1 993.1
16 16.08 З 6 н/о н/о +12.3 -2.0 37 +10 +10 1013.9 992.9
17 16.08 З 6 н/о н/о +11.7 -2.1 38 +9 +9 1013.6 992.6
18 16.08 З 4 н/о н/о +10.4 -2.3 41 +8 +8 1013.6 992.6
19 16.08 З 4 н/о н/о +9.0 -2.3 45 +7 +7 1013.6 992.6
20 16.08 З 3 н/о н/о +8.6 -2.3 46 +7 +7 1014.2 993.2
21 16.08 З 3 н/о н/о +9.4 -2.5 43 +8 +8 1014.7 993.7
22 16.08 З 3 н/о н/о +11.9 -3.1 35 +11 +11 1015.4 994.4

 

Местоположение метеостанции Tibooburra Airport (Новый Южный Уэльс, Австралия): широта -29.45 долгота 142.05 высота над уровнем моря 177 м.

В архиве по умолчанию представлена погода в Tibooburra Airport за последнюю неделю. Архивные данные за месяц целиком и за предыдущие месяцы, начиная с января 2011 года, Вы можете получить, выбрав интересующий диапазон дат из раскрывающегося списка и нажав кнопку "Ввод!".

Внимание! Время в таблицах - всемирное. Для получения местного времени необходимо прибавить поправку, которая в Tibooburra Airport равна 10 ч.

Смотрите также архив погоды в соседних городах и на ближайших метеорологических станциях:

Погода в White Cliffs Aws (Новый Южный Уэльс, Австралия) (184 км)
Погода в Fowlers Gap Aws (Новый Южный Уэльс, Австралия) (184 км)
Погода в Ballera Gas Field (Квинсленд, Австралия) (227 км)
Погода в Moomba Airport (Южная Австралия, Австралия) (235 км)
Погода в Thargomindah Airport (Квинсленд, Австралия) (237 км)
Погода в Wilcannia Aerodrome (Новый Южный Уэльс, Австралия) (263 км)
Погода в Broken Hill Airport (Новый Южный Уэльс, Австралия) (289 км)
Погода в Leigh Creek Airport (Южная Австралия, Австралия) (372 км)
Погода в Bourke Airport Aws (Новый Южный Уэльс, Австралия) (382 км)
Погода в Marree Aero (Южная Австралия, Австралия) (387 км)

Пояснения к столбцам:

Ветер - указаны скорость ветра в м/с - средняя за 10 мин, порывы в срок и между сроками (в фигурных скобках) и направление, откуда дует ветер: С - северный, СВ - северо-восточный, В - восточный, ЮВ - юго-восточный, Ю - южный, ЮЗ - юго-западный, З - западный, СЗ - северо-западный.
Видимость - горизонтальная дальность видимости в метрах или километрах. При видимости от 1 до 10 км при отсутствии осадков обычно наблюдается дымка, при ухудшении видимости до 1 км и менее - туман. В сухую погоду видимость может ухудшаться дымом, пылью или мглою.
Явления - указаны атмосферные явления, наблюдавшиеся в срок или в последний час перед сроком; фигурными скобками обозначены явления, наблюдавшиеся между сроками (за 1-3 часа до срока); квадратными скобками обозначены град или гололедные отложения с указанием их диаметра в мм.
Облачность - указаны через наклонную черту общая и нижняя облачность в баллах и высота нижней границы облаков в метрах; квадратными скобками обозначены формы облаков: Ci - перистые, Cs - перисто-слоистые, Cc - перисто-кучевые, Ac - высококучевые, As - высокослоистые, Sc - слоисто-кучевые, Ns - слоисто-дождевые, Cu - кучевые, Cb - кучево-дождевые. Подробнее классификацию облаков см. в Атласе облаков (PDF).
T - Температура воздуха - температура, измеренная на высоте 2 м над землей.
Td - Температура точки росы - температура, при понижении до которой содержащийся в воздухе водяной пар достигнет насыщения.
f - Относительная влажность воздуха - влажноcть воздуха, измеренная на высоте 2 м над землей.
Te - Эффективная температура - температура, которую ощущает одетый по сезону человек в тени. Характеристика душности погоды. При расчете учитывается влияние влажности воздуха и скорости ветра на теплоощущения человека.
Tes - Эффективная температура на солнце - температура, которую ощущает человек, с поправкой на солнечный нагрев. Характеристика знойности погоды. Зависит от высоты солнца над горизонтом, облачности и скорости ветра. Ночью, в пасмурную погоду, а также при ветре 12 м/с и более поправка равна нулю.
P - Атмосферное давление - приведенное к уровню моря атмосферное давление.
Po - Атмосферное давление - измеренное на уровне метеостанции атмосферное давление.
Tmin - Минимальная температура - минимум температуры воздуха на высоте 2 м над землей.
Tmax - Максимальная температура - максимум температуры воздуха на высоте 2 м над землей.
R - Количество осадков - Количество выпавших осадков за период времени, мм. При наведении курсора мыши на число - период времени, за который выпало указанное количество осадков.
R24 - Количество осадков - Количество выпавших осадков за 24 часа, мм.
S - Снежный покров - Высота снежного покрова, см. При наведении курсора мыши на число - состояние снежного покрова и степень покрытия местности в баллах.